STARLINK-32472

Last updated on Thu Nov 21 2024 00:02:05 GMT+0000 (Coordinated Universal Time)

1 61846U 24202B 24325.58335648 -.01246195 00000+0 -85377-2 0 9994 2 61846 43.0040 50.6507 0001562 279.5841 114.4505 15.76711157 3230
UTC large
Height (km)
Speed (km/s)
/
Latitude / Longitude
Inclination (degrees)
Orbital Period (minutes)
Azimuth
Elevation
Range (km)
Doppler Factor

Next 0 passes for location: London (51.5072 / 0.1276)

Sorry there are no passes over London.